Location: Newark
(51.7378°N, 19.8125°E)
Time: 13:41:50
(UTC+00:00)

N. Korean satellite - Visible Passes

Search period start: 08 December 2019 00:00
Search period end: 18 December 2019 00:00
Orbit: 456 x 506 km, 97.2° (Epoch: 07 December)

Date Brightness Start Highest point End Pass type
(mag) Time Alt. Az. Time Alt. Az. Time Alt. Az.
08 Dec 7.9 04:17:42 10° NNE 04:21:08 41° E 04:24:29 10° S visible
08 Dec 7.9 05:51:40 10° NNW 05:54:17 19° WNW 05:56:52 10° WSW visible
08 Dec 9.4 16:32:06 10° SW 16:35:02 22° W 16:37:58 10° NW visible
09 Dec 9.1 03:52:41 10° NE 03:55:33 22° E 03:58:22 10° SE visible
09 Dec 7.2 05:25:47 10° N 05:29:02 33° WNW 05:32:13 10° SW visible
09 Dec 8.2 16:05:57 10° SSW 16:09:27 39° W 16:12:57 10° NNW visible
10 Dec 10.0 03:28:19 10° ENE 03:29:52 12° E 03:31:23 10° ESE visible
10 Dec 6.4 05:00:09 10° N 05:03:41 63° WNW 05:07:08 10° SSW visible
10 Dec 6.9 15:40:15 10° S 15:43:57 75° WSW 15:47:39 10° NNW visible
11 Dec 6.9 04:34:41 10° NNE 04:38:15 66° ESE 04:41:43 10° S visible
11 Dec 6.7 15:14:54 10° SSE 15:18:32 57° ENE 15:22:09 10° N visible
11 Dec 9.9 16:50:07 10° SW 16:52:16 15° W 16:54:25 10° NW visible
12 Dec 8.3 04:09:28 10° NNE 04:12:43 33° E 04:15:55 10° SSE visible
12 Dec 7.7 05:43:09 10° NNW 05:45:59 22° WNW 05:48:45 10° WSW visible
12 Dec 9.0 16:23:29 10° SSW 16:26:37 26° W 16:29:45 10° NW visible
13 Dec 9.4 03:44:34 10° NE 03:47:06 18° E 03:49:35 10° SE visible
13 Dec 6.9 05:17:20 10° N 05:20:41 39° WNW 05:23:57 10° SW visible
13 Dec 7.7 15:57:28 10° S 16:01:03 47° W 16:04:38 10° NNW visible
14 Dec 6.3 04:51:46 10° N 04:55:19 78° WNW 04:58:47 10° SSW visible
14 Dec 6.6 15:31:53 10° SSE 15:35:35 89° ENE 15:39:16 10° NNW visible
15 Dec 7.3 04:26:23 10° NNE 04:29:50 52° E 04:33:13 10° S visible
15 Dec 8.1 06:00:41 10° NNW 06:02:52 16° WNW 06:05:01 10° W visible
15 Dec 6.9 15:06:39 10° SE 15:10:12 46° ENE 15:13:42 10° N visible
15 Dec 9.7 16:41:17 10° SW 16:43:49 17° W 16:46:21 10° NW visible
16 Dec 8.7 04:01:13 10° NE 04:04:16 27° E 04:07:16 10° SSE visible
16 Dec 7.4 05:34:38 10° N 05:37:38 26° WNW 05:40:35 10° SW visible
16 Dec 8.7 16:14:53 10° SSW 16:18:11 31° W 16:21:29 10° NNW visible
17 Dec 9.7 03:36:31 10° NE 03:38:36 15° E 03:40:40 10° SE visible
17 Dec 6.6 05:08:54 10° N 05:12:18 48° WNW 05:15:39 10° SSW visible
17 Dec 7.3 15:49:02 10° S 15:52:39 58° W 15:56:16 10° NNW visible
